User: anonymous   Login
Location: Lourdes
(43.1000°N, 0.0500°W)
Time: 23:02:51
(UTC+00:00)
Language:

Cosmos 1741 - Orbit

View from above orbital plane
View from above orbital plane
View from above satellite
View from above satellite

Ground track
Ground track

The orbit data is extracted from the following two-line orbital elements,

1 16681U 86030A   21175.36769335 -.00000024  00000-0  81439-6 0  9995
2 16681  74.0230 135.1223 0018243 135.9838 224.2770 14.33032909838649
Epoch (UTC): 24 June 2021 08:49:28
Eccentricity: 0.0018243
inclination: 74.0230°
perigee height: 768 km
apogee height: 794 km
right ascension of ascending node: 135.1223°
argument of perigee: 135.9838°
revolutions per day: 14.33032909
mean anomaly at epoch: 224.2770°
orbit number at epoch: 83864

The dashed part of the orbit path shows where the satellite is in the earth's shadow,  

DLR